Fort Atkinson, Wisconsin, United States (53538)
Lat: 42.93N, Lon: 88.84W
Wx Zone: WIZ064
Local Info
Past Weather Observations for Sunday, February 22, 2015

NOTE: This archive is for the closest National Weather Service station to Fort Atkinson. Information may differ from the station used for current weather conditions.

Click here for Long-term Archive

Time Weather Temperature Dewpoint Humidity Pressure Winds Precip Visibility
23:55
Clear
-2°F / -19°C -13°F / -25°C 59% 30.69 in
(1039 mb)
NNW 9.2 mph
(NNW 15 kph)
- 10SM
23:35
Clear
-2°F / -19°C -13°F / -25°C 59% 30.66 in
(1038 mb)
NW 8.1 mph
(NW 13 kph)
- 10SM
23:15
Clear
-2°F / -19°C -13°F / -25°C 59% 30.66 in
(1038 mb)
NW 5.8 mph
(NW 9 kph)
- 10SM
22:55
Clear
°F / -18°C -13°F / -25°C 54% 30.66 in
(1038 mb)
NNW 9.2 mph
(NNW 15 kph)
- 10SM
22:35
Clear
°F / -18°C -11°F / -24°C 60% 30.66 in
(1038 mb)
NW 4.6 mph
(NW 7 kph)
- 10SM
22:15
Clear
°F / -18°C -11°F / -24°C 60% 30.66 in
(1038 mb)
NW 8.1 mph
(NW 13 kph)
- 10SM
21:55
Clear
°F / -18°C -11°F / -24°C 60% 30.66 in
(1038 mb)
NNW 9.2 mph
(NNW 15 kph)
- 10SM
21:35
Clear
°F / -18°C -11°F / -24°C 60% 30.66 in
(1038 mb)
NW 10.4 mph
(NW 17 kph)
- 10SM
21:15
Clear
°F / -18°C -11°F / -24°C 60% 30.66 in
(1038 mb)
NNW 6.9 mph
(NNW 11 kph)
- 10SM
20:55
Clear
1°F / -17°C -11°F / -24°C 55% 30.63 in
(1037 mb)
NNW 8.1 mph
(NNW 13 kph)
- 10SM
20:35
Clear
1°F / -17°C -9°F / -23°C 60% 30.63 in
(1037 mb)
NNW 9.2 mph
(NNW 15 kph)
- 10SM
20:15
Clear
1°F / -17°C -9°F / -23°C 60% 30.6 in
(1036 mb)
NW 9.2 mph
(NW 15 kph)
- 10SM
19:55
Clear
1°F / -17°C -9°F / -23°C 60% 30.6 in
(1036 mb)
NW 4.6 mph
(NW 7 kph)
- 10SM
19:35
Clear
3°F / -16°C -9°F / -23°C 55% 30.6 in
(1036 mb)
WNW 4.6 mph
(WNW 7 kph)
- 10SM
19:15
Clear
3°F / -16°C -9°F / -23°C 55% 30.6 in
(1036 mb)
NNW 6.9 mph
(NNW 11 kph)
- 10SM
18:55
Clear
3°F / -16°C -9°F / -23°C 55% 30.57 in
(1035 mb)
NNW 6.9 mph
(NNW 11 kph)
- 10SM
18:35
Clear
5°F / -15°C -9°F / -23°C 51% 30.57 in
(1035 mb)
NW 5.8 mph
(NW 9 kph)
- 10SM
18:15
Clear
5°F / -15°C -9°F / -23°C 51% 30.57 in
(1035 mb)
NW 5.8 mph
(NW 9 kph)
- 10SM
17:55
Clear
5°F / -15°C -9°F / -23°C 51% 30.54 in
(1034 mb)
NW 8.1 mph
(NW 13 kph)
- 10SM
17:35
Clear
7°F / -14°C -9°F / -23°C 47% 30.54 in
(1034 mb)
NW 11.5 mph
(NW 19 kph)
- 10SM
17:15
Clear
7°F / -14°C -8°F / -22°C 51% 30.54 in
(1034 mb)
NW 13.8 mph
(NW 22 kph)
- 10SM
16:55
Clear
9°F / -13°C -8°F / -22°C 47% 30.54 in
(1034 mb)
NW 13.8 mph
(NW 22 kph)
- 10SM
16:35
Clear
9°F / -13°C -8°F / -22°C 47% 30.51 in
(1033 mb)
NW 9.2 mph
(NW 15 kph)
- 10SM
16:15
Clear
9°F / -13°C -6°F / -21°C 51% 30.51 in
(1033 mb)
NW 11.5 mph
(NW 19 kph)
- 10SM
15:55
Clear
10°F / -12°C -6°F / -21°C 47% 30.51 in
(1033 mb)
NW 10.4 mph
(NW 17 kph)
- 10SM
15:35
Partly Cloudy
10°F / -12°C -8°F / -22°C 44% 30.51 in
(1033 mb)
NW 10.4 mph
(NW 17 kph)
- 10SM
15:15
Clear
10°F / -12°C -6°F / -21°C 47% 30.51 in
(1033 mb)
NW 13.8 mph
(NW 22 kph)
- 10SM
14:55
Partly Cloudy
10°F / -12°C -6°F / -21°C 47% 30.51 in
(1033 mb)
NW 10.4 mph
(NW 17 kph)
- 10SM
14:35
Mostly Cloudy
10°F / -12°C -6°F / -21°C 47% 30.48 in
(1032 mb)
NW 11.5 mph
(NW 19 kph)
- 10SM
14:15
Partly Cloudy
10°F / -12°C -6°F / -21°C 47% 30.48 in
(1032 mb)
NW 13.8 mph
(NW 22 kph)
- 10SM
13:55
Partly Cloudy
10°F / -12°C -6°F / -21°C 47% 30.48 in
(1032 mb)
NW 11.5 mph
(NW 19 kph)
- 10SM
13:35
Mostly Cloudy
10°F / -12°C -4°F / -20°C 52% 30.48 in
(1032 mb)
NW 13.8 mph
(NW 22 kph)
- 10SM
13:15
Partly Cloudy
10°F / -12°C -4°F / -20°C 52% 30.48 in
(1032 mb)
NW 15 mph
(NW 24 kph)
- 10SM
12:55
Clear
10°F / -12°C -4°F / -20°C 52% 30.48 in
(1032 mb)
WNW 16.1 mph
(WNW 26 kph)
- 10SM
12:35
Clear
10°F / -12°C -6°F / -21°C 47% 30.45 in
(1031 mb)
NW 17.3 mph
(NW 28 kph)
- 10SM
12:15
Partly Cloudy
10°F / -12°C -4°F / -20°C 52% 30.48 in
(1032 mb)
NW 13.8 mph
(NW 22 kph)
- 10SM
11:55
Partly Cloudy
10°F / -12°C -2°F / -19°C 56% 30.48 in
(1032 mb)
NW 13.8 mph
(NW 22 kph)
- 10SM
11:35
Partly Cloudy
10°F / -12°C -2°F / -19°C 56% 30.45 in
(1031 mb)
NW 12.7 mph
(NW 20 kph)
- 10SM
11:15
Partly Cloudy
10°F / -12°C -2°F / -19°C 56% 30.45 in
(1031 mb)
NW 15 mph
(NW 24 kph)
- 10SM
10:55
Partly Cloudy
10°F / -12°C -2°F / -19°C 56% 30.45 in
(1031 mb)
NW 15 mph
(NW 24 kph)
- 10SM
10:35
Clear
9°F / -13°C -2°F / -19°C 61% 30.45 in
(1031 mb)
NNW 11.5 mph
(NNW 19 kph)
- 10SM
10:15
Clear
10°F / -12°C °F / -18°C 61% 30.42 in
(1030 mb)
NNW 10.4 mph
(NNW 17 kph)
- 10SM
09:55
Partly Cloudy
9°F / -13°C °F / -18°C 66% 30.42 in
(1030 mb)
NW 12.7 mph
(NW 20 kph)
- 10SM
09:35
Partly Cloudy
9°F / -13°C °F / -18°C 66% 30.42 in
(1030 mb)
NNW 11.5 mph
(NNW 19 kph)
- 10SM
09:15
Clear
9°F / -13°C °F / -18°C 66% 30.42 in
(1030 mb)
NW 15 mph
(NW 24 kph)
- 10SM
08:55
Clear
9°F / -13°C 1°F / -17°C 72% 30.39 in
(1029 mb)
NNW 13.8 mph
(NNW 22 kph)
- 10SM
08:35
Clear
9°F / -13°C °F / -18°C 66% 30.39 in
(1029 mb)
NW 12.7 mph
(NW 20 kph)
- 10SM
08:15
Partly Cloudy
9°F / -13°C 1°F / -17°C 72% 30.36 in
(1028 mb)
NW 16.1 mph
(NW 26 kph)
- 10SM
07:55
Overcast
9°F / -13°C 1°F / -17°C 72% 30.36 in
(1028 mb)
NW 11.5 mph
(NW 19 kph)
- 10SM
07:35
Mostly Cloudy
9°F / -13°C 1°F / -17°C 72% 30.36 in
(1028 mb)
NW 8.1 mph
(NW 13 kph)
- 10SM
07:15
Clear
9°F / -13°C 1°F / -17°C 72% 30.33 in
(1027 mb)
NW 8.1 mph
(NW 13 kph)
- 10SM
06:55
Clear
7°F / -14°C 1°F / -17°C 78% 30.33 in
(1027 mb)
NW 8.1 mph
(NW 13 kph)
- 10SM
06:35
Clear
9°F / -13°C 1°F / -17°C 72% 30.3 in
(1026 mb)
NW 9.2 mph
(NW 15 kph)
- 10SM
06:15
Clear
9°F / -13°C 1°F / -17°C 72% 30.3 in
(1026 mb)
NW 6.9 mph
(NW 11 kph)
- 10SM
05:55
Clear
9°F / -13°C 3°F / -16°C 78% 30.3 in
(1026 mb)
NW 9.2 mph
(NW 15 kph)
- 10SM
05:35
Clear
9°F / -13°C 3°F / -16°C 78% 30.3 in
(1026 mb)
NW 4.6 mph
(NW 7 kph)
- 10SM
05:15
Clear
10°F / -12°C 3°F / -16°C 72% 30.3 in
(1026 mb)
NW 5.8 mph
(NW 9 kph)
- 10SM
04:55
Clear
10°F / -12°C 3°F / -16°C 72% 30.27 in
(1025 mb)
NW 4.6 mph
(NW 7 kph)
- 10SM
04:35
Partly Cloudy
10°F / -12°C 5°F / -15°C 79% 30.27 in
(1025 mb)
NW 5.8 mph
(NW 9 kph)
- 10SM
04:15
Overcast
12°F / -11°C 5°F / -15°C 73% 30.27 in
(1025 mb)
NW 5.8 mph
(NW 9 kph)
- 10SM
03:55
Overcast
12°F / -11°C 5°F / -15°C 73% 30.27 in
(1025 mb)
NW 4.6 mph
(NW 7 kph)
- 10SM
03:35
Overcast
12°F / -11°C 5°F / -15°C 73% 30.24 in
(1024 mb)
NW 5.8 mph
(NW 9 kph)
- 10SM
03:15
Mostly Cloudy
12°F / -11°C 5°F / -15°C 73% 30.24 in
(1024 mb)
NW 4.6 mph
(NW 7 kph)
- 10SM
02:55
Mostly Cloudy
14°F / -10°C 7°F / -14°C 73% 30.24 in
(1024 mb)
NW 6.9 mph
(NW 11 kph)
- 10SM
02:35
Overcast
14°F / -10°C 7°F / -14°C 73% 30.24 in
(1024 mb)
NW 5.8 mph
(NW 9 kph)
- 10SM
02:15
Mostly Cloudy
14°F / -10°C 9°F / -13°C 79% 30.24 in
(1024 mb)
NW 5.8 mph
(NW 9 kph)
- 10SM
01:55
Partly Cloudy
16°F / -9°C 7°F / -14°C 67% 30.24 in
(1024 mb)
NW 5.8 mph
(NW 9 kph)
- 10SM
01:35
Partly Cloudy
16°F / -9°C 9°F / -13°C 73% 30.21 in
(1023 mb)
NW 10.4 mph
(NW 17 kph)
- 10SM
01:15
Mostly Cloudy
18°F / -8°C 9°F / -13°C 68% 30.21 in
(1023 mb)
NW 5.8 mph
(NW 9 kph)
- 10SM
00:55
Overcast
18°F / -8°C 12°F / -11°C 79% 30.21 in
(1023 mb)
NW 4.6 mph
(NW 7 kph)
- 10SM
00:35
Overcast
19°F / -7°C 12°F / -11°C 73% 30.18 in
(1022 mb)
NW 10.4 mph
(NW 17 kph)
- 10SM
00:15
Overcast
19°F / -7°C 14°F / -10°C 79% 30.18 in
(1022 mb)
NW 6.9 mph
(NW 11 kph)
- 10SM
Time Weather Temperature Dewpoint Humidity Pressure Winds Precip Visibility


Weather for websites

WeatherForYou.com, LLC is not responsible for any damages or problems caused by this service. Current weather conditions are obtained from the closest station including government and personal stations which may have varying degrees of accuracy. Weather forecasts are derived from the NOAA NDFD. Like all things, this site belongs to Jesus Christ... He just trusts me to maintain it. If you have any questions or comments email webmaster@weatherforyou.com

Copyright © 2015, WeatherForYou.com LLC. All rights reserved.